Погода в Карамалах

Россия / Пензенская область     53˚37′32″N   46˚07′52″E
темп.,
°C
ветер,
м/с
пор.,
м/с
влажн.,
%
обл.,
%
осадки,
мм/ч
давл.,
гПа
погр.,
м
17 января, вс
вс1700:00−14˚зюз51093100 0.1 1004496
03:00−16˚зюз5119396 0.2 1006443
06:00−18˚з5119497 0.1 1007349
09:00−21˚зюз499795 0.1 1010237
12:00−18˚зюз479493 0.0 1012283
15:00−19˚з369596 0.0 1014244
18:00−22˚з239791 0.0 101628
21:00−24˚зсз129849 0.0 101820
18 января, пн
пн1800:00−25˚зюз119941 0.0 101920
03:00−26˚з1110056 0.0 101920
06:00−26˚ссв1110084 0.0 101920
09:00−25˚в009777 0.0 102020
12:00−20˚всв1192100 0.0 1019195
15:00−19˚с1195100 0.0 101870
18:00−19˚св2497100 0.0 1018129
21:00−19˚ссв2396100 0.1 1018150
19 января, вт
вт1900:00−19˚св2398100 1.1 1017152
03:00−20˚ссв1298100 1.6 101764
06:00−21˚ссв2299100 0.3 101630
09:00−20˚с1298100 0.4 101687
12:00−18˚с2293100 0.2 1015264
15:00−17˚сз1295100 0.4 1014235
18:00−19˚ссз2298100 0.3 101545
21:00−19˚сз1298100 0.6 101645
20 января, ср
ср2000:00−19˚зсз2298100 0.2 101662
03:00−19˚зсз2398100 0.4 1017107
06:00−20˚зсз2498100 0.2 1017116
09:00−20˚сз3597100 0.3 1018232
12:00−18˚сз3595100 0.0 1019310
15:00−19˚сз3695100 0.1 1020322
18:00−24˚сз349890 0.0 102260
21:00−26˚сз3310093 0.0 102336
21 января, чт
чт2100:00−26˚зсз23100100 0.0 102424
03:00−25˚зсз2310099 0.0 102529
06:00−24˚з3410093 0.0 102659
09:00−22˚з369995 0.0 1026128
12:00−17˚з4796100 0.0 1025256
15:00−16˚зюз4995100 0.0 1024283
18:00−16˚зюз5993100 0.0 1024248
21:00−15˚юз51092100 0.0 1023262